EHI
8 10 16 15 9 6 4 2 1 0 0 0 0 0 0 0 0 0 0 0 0 0 0 0 1 1 1 0 0 0 0 0 0 0 0 0 0 0 0 0 0 0 0
9 12 15 14 10 7 4 3 2 1 0 0 0 0 0 0 0 0 0 0 0 0 0 0 0 0 0 0 0 0 0 0 0 0 0 0 0 0 0 0 0 0 0
10 12 13 14 12 9 6 4 2 1 0 0 0 0 0 0 0 0 0 0 0 0 0 0 0 0 0 0 0 0 0 0 0 0 0 0 0 0 0 0 0 0 0
10 10 11 14 14 11 7 4 2 1 0 0 0 0 0 0 0 0 0 0 0 0 0 0 0 0 0 0 0 0 0 0 0 0 0 0 0 0 0 0 0 0 0
7 8 10 16 17 13 8 4 2 1 0 0 0 0 0 0 0 0 0 0 0 0 0 0 0 0 0 0 0 0 0 0 0 0 0 0 0 0 0 0 0 0 0
4 7 12 17 19 16 10 5 1 0 0 0 0 0 0 0 0 0 0 0 0 0 0 0 0 0 0 0 0 0 0 0 0 0 0 0 0 0 0 0 0 0 0
6 8 12 18 20 17 11 5 1 0 0 0 0 0 0 0 0 0 0 0 0 0 0 0 0 0 0 0 0 0 0 0 0 0 0 0 0 0 0 0 1 1 0
10 9 10 14 16 14 10 5 1 1 0 0 0 0 0 0 0 0 0 0 0 0 0 0 0 0 0 0 0 0 0 0 0 0 0 0 0 0 0 0 1 2 1
10 9 7 7 9 8 6 4 2 1 0 0 0 0 0 0 0 0 0 0 0 0 0 0 0 0 0 0 0 0 0 0 0 0 0 0 0 0 0 0 1 2 2
6 6 4 3 3 3 3 3 2 1 0 0 0 0 0 0 0 0 0 0 0 0 0 0 0 0 0 0 0 0 0 0 0 0 0 0 0 0 0 0 0 1 2
2 2 2 1 1 1 2 2 1 0 0 0 0 0 0 0 0 0 0 0 0 0 0 0 0 0 0 0 0 0 0 0 0 0 0 0 0 0 0 0 0 0 1
0 0 0 1 1 1 2 2 1 0 0 0 0 0 0 0 0 0 0 0 0 0 0 0 0 0 0 0 0 0 0 0 0 0 0 0 0 0 0 0 0 0 0
0 0 1 1 2 2 2 2 1 0 0 0 0 0 0 0 0 0 0 0 0 0 0 0 0 0 0 0 0 0 0 0 0 0 0 0 0 0 0 0 0 0 0
0 1 2 2 2 1 1 1 0 0 0 0 0 0 0 0 0 0 0 0 0 0 0 0 0 0 0 0 0 0 0 0 0 0 0 0 0 0 0 0 0 0 0
0 1 2 2 1 0 0 0 0 0 0 0 0 0 0 0 0 0 0 0 0 0 0 0 0 0 0 0 0 0 0 0 0 0 0 0 0 0 0 0 0 0 0
0 0 1 1 0 0 0 0 0 0 0 0 0 0 0 0 0 1 0 0 0 0 0 0 0 0 0 0 0 0 0 0 0 0 0 0 0 0 0 0 0 0 0
0 0 0 0 0 0 0 0 0 0 0 0 0 0 0 0 0 0 0 0 0 0 0 0 0 0 0 0 0 0 0 0 0 0 0 0 0 0 0 0 0 0 0
0 0 0 0 0 0 0 0 0 0 0 0 0 0 0 0 0 0 0 0 0 0 0 0 0 0 0 0 0 0 0 0 0 0 0 0 0 0 0 0 0 0 0
0 0 0 0 0 0 0 0 0 0 0 0 0 0 0 0 0 0 0 0 0 0 0 0 0 0 0 0 0 0 0 0 0 0 0 0 0 0 0 0 0 0 0
0 0 0 0 0 0 0 0 0 0 0 0 0 0 0 0 0 0 0 0 0 0 0 0 0 0 0 0 0 0 0 0 0 0 0 0 0 0 0 0 0 0 0
0 0 0 0 0 0 0 0 0 0 0 0 0 0 0 0 0 0 0 0 0 0 0 0 0 0 0 0 0 0 0 0 0 0 0 0 0 0 0 0 0 0 0
0 0 0 0 0 0 0 0 0 0 0 0 0 0 0 0 0 0 0 0 0 0 0 0 0 0 0 0 0 0 0 0 0 0 0 0 0 0 0 0 0 0 0
0 0 0 0 0 0 0 0 0 0 0 0 0 0 0 0 0 0 0 0 0 0 0 0 0 0 0 0 0 0 0 0 0 0 0 0 0 0 0 0 0 0 0
0 0 0 0 0 0 0 0 0 0 0 0 0 0 0 0 0 0 0 0 0 0 0 0 0 0 0 0 0 0 0 0 0 0 0 0 0 0 0 0 0 0 0
0 0 0 0 0 0 0 0 0 0 0 0 0 0 0 0 0 0 0 0 0 0 0 0 0 0 0 0 0 0 0 0 0 0 0 0 0 0 0 0 0 0 0
0 0 0 0 0 0 0 0 0 0 0 0 0 0 0 0 0 0 0 0 0 0 0 0 0 0 0 0 0 0 0 0 0 0 0 0 0 0 0 0 0 0 0
Wind_Speed
4 5 7 5 6 6 6 7 7 7 7 8 8 8 8 8 8 8 8 8 8 8 8 8 9 9 10 10 10 10 11 10 10 10 10 10 10 10 10 10 9 7 11
4 5 7 6 5 6 6 6 6 6 7 7 8 8 8 8 8 8 7 7 7 7 8 8 9 9 9 10 10 9 9 8 7 6 6 6 8 9 10 11 10 7 10
5 5 6 5 5 5 5 6 6 6 7 7 8 8 8 7 7 7 8 7 7 7 8 9 9 9 9 10 9 8 7 5 3 2 1 3 5 8 9 10 9 9 9
4 5 5 4 4 5 6 6 6 6 7 7 7 7 7 7 7 7 7 7 7 8 8 9 9 9 9 9 8 7 5 3 3 3 1 4 5 8 9 9 9 9 9
3 4 5 5 4 4 5 6 6 7 7 7 7 7 7 7 7 7 7 7 7 7 8 8 9 9 8 8 7 6 4 4 5 3 3 6 5 9 10 10 9 9 9
3 4 5 5 4 4 5 6 6 7 7 7 7 7 7 6 6 6 6 6 7 7 8 8 8 8 8 7 6 5 4 5 4 2 4 6 5 8 10 9 9 9 8
3 3 4 5 4 4 5 6 6 6 6 6 7 6 6 6 6 6 6 6 7 7 7 8 8 8 7 6 5 4 4 6 3 3 5 5 5 9 9 8 8 8 8
2 2 3 4 4 4 5 6 6 6 6 6 6 6 6 6 6 6 7 7 7 7 7 7 7 7 6 5 4 3 4 5 3 4 5 5 7 8 8 8 8 8 8
2 2 2 3 3 4 5 6 5 6 6 6 5 5 5 5 6 7 7 7 7 7 7 7 7 6 5 5 3 3 4 5 4 3 5 4 6 8 8 8 8 9 9
2 2 2 2 2 3 3 5 5 6 6 5 5 5 6 6 6 6 6 6 6 7 7 6 6 5 5 4 2 2 3 4 2 4 3 4 7 8 8 8 9 10 10
2 2 1 1 2 2 3 4 5 6 6 6 5 6 5 3 4 4 5 5 6 6 6 6 5 5 4 3 1 1 2 1 2 4 3 6 7 7 8 9 9 10 10
1 1 1 1 1 2 2 3 3 3 4 3 3 4 2 2 3 4 5 5 6 6 5 5 4 3 3 1 1 0 1 2 3 4 4 8 8 8 8 8 9 9 10
1 0 1 1 1 1 2 2 1 2 2 2 3 3 2 3 2 3 2 3 3 4 2 3 2 1 1 1 1 1 1 2 3 3 4 8 7 8 8 8 8 9 9
1 0 1 1 1 1 2 2 2 2 1 2 2 2 2 2 1 2 2 2 2 1 1 1 1 1 2 2 2 2 2 2 3 3 4 8 8 8 8 8 8 8 9
1 1 1 1 1 1 2 2 2 2 2 2 2 2 3 2 2 1 2 1 1 1 1 1 1 2 2 1 2 2 2 3 4 4 3 7 8 7 7 7 7 7 8
1 1 1 1 1 2 2 2 2 2 2 2 2 2 3 2 2 2 2 2 1 1 1 1 1 2 2 1 2 2 2 3 3 4 4 4 7 7 7 7 7 6 6
2 2 2 2 2 2 3 2 2 2 2 2 2 2 2 3 3 2 2 1 1 1 1 1 2 2 2 2 2 2 2 2 3 3 4 3 3 5 6 6 6 6 6
2 2 2 2 2 2 2 2 2 2 2 2 1 2 3 3 3 2 2 1 2 1 1 1 1 2 1 2 2 1 1 2 2 2 3 3 2 3 4 6 5 5 4
3 3 2 2 2 2 2 3 3 2 2 1 1 1 2 3 3 2 2 2 2 2 1 1 1 1 2 2 1 1 1 1 1 2 3 3 3 3 2 4 5 4 4
3 3 3 2 3 3 2 2 2 3 2 1 2 1 2 2 3 2 2 2 2 2 1 1 1 1 2 1 1 1 0 1 1 1 2 2 2 3 3 3 2 2 3
3 3 4 3 2 2 2 2 2 2 1 1 1 2 2 2 2 2 2 1 1 2 2 2 1 2 1 1 2 1 1 0 1 1 1 2 2 2 2 2 2 1 1
2 3 4 3 3 3 2 1 2 2 1 1 1 2 2 2 1 1 2 1 1 1 2 2 2 1 1 1 1 1 0 1 1 1 1 2 2 2 2 2 2 2 1
2 3 3 3 3 3 3 2 2 2 1 1 1 1 1 1 1 1 1 2 1 1 2 2 2 2 1 1 0 2 2 2 0 1 2 2 2 2 2 1 2 2 1
2 3 3 3 3 3 3 3 3 2 2 1 1 1 1 1 1 1 1 1 1 1 2 2 1 1 2 1 1 0 1 2 2 0 1 1 2 2 2 2 2 2 2
3 3 3 4 3 2 3 3 3 2 1 1 2 2 1 1 1 1 1 1 2 2 2 2 1 1 1 2 1 1 0 0 1 2 2 1 1 2 2 2 2 1 2
3 3 3 4 3 2 3 3 3 3 2 2 2 2 1 1 1 1 2 2 2 2 2 2 2 2 1 1 1 1 1 1 1 1 1 2 2 2 2 2 2 2 2
Wind_Direction
85 116 124 120 123 123 125 128 124 119 118 120 119 115 110 105 101 99 96 92 93 93 91 89 86 84 82 82 83 81 79 76 78 79 74 70 69 67 62 58 61 67 67
97 113 125 120 126 131 131 131 128 125 120 123 123 119 115 108 104 101 101 97 96 95 95 96 93 90 87 85 83 82 81 79 81 83 83 74 72 69 64 61 63 67 70
92 109 120 116 118 129 133 135 132 132 128 125 125 123 118 114 111 105 101 98 95 95 98 100 95 91 89 86 83 82 81 79 69 53 78 97 85 73 71 70 68 70 74
87 112 112 105 121 131 135 139 138 137 130 126 124 125 124 122 116 111 106 101 96 94 96 97 95 92 89 86 83 79 72 45 352 344 43 92 85 80 80 75 71 71 72
76 107 113 99 116 128 138 146 149 141 134 128 125 124 125 123 120 115 109 103 100 98 100 99 98 93 89 85 82 76 52 3 340 345 56 76 75 82 82 76 72 70 69
62 102 115 109 111 125 136 144 149 143 137 133 131 125 124 124 123 119 109 103 101 103 102 100 99 95 89 86 81 67 28 350 347 1 71 76 77 80 79 75 71 69 68
50 94 127 119 116 128 137 140 140 141 138 134 132 129 124 124 125 120 113 108 105 107 106 105 104 99 94 88 79 53 12 349 356 46 66 71 75 80 78 75 70 69 69
50 96 133 130 129 132 139 137 139 138 137 133 129 128 124 127 127 122 116 111 109 108 108 108 105 103 99 92 78 40 6 350 4 68 72 70 78 82 80 76 71 72 72
51 95 129 140 140 137 136 138 140 138 137 135 129 123 120 117 120 118 115 114 111 108 106 107 106 109 105 96 77 31 358 350 1 47 78 73 74 80 81 78 77 74 72
47 79 118 135 139 140 137 139 137 138 139 136 128 118 111 111 115 115 114 114 113 112 110 110 112 112 111 104 87 21 342 344 25 58 66 76 78 80 80 81 80 77 75
22 55 73 128 144 143 146 142 143 142 140 136 133 133 137 136 124 113 116 117 119 119 119 122 125 127 122 120 101 352 342 21 62 67 63 76 79 78 82 83 81 79 76
341 48 60 60 129 135 141 140 149 141 145 148 151 159 162 114 108 111 114 122 124 122 127 136 143 146 146 149 181 355 8 55 61 70 64 77 78 80 85 84 81 81 79
313 358 62 48 75 108 124 140 132 133 139 135 140 148 120 109 118 120 124 123 132 139 147 160 163 176 155 138 136 127 67 72 77 75 66 77 81 84 84 86 84 83 82
225 264 55 73 84 110 120 129 113 114 117 108 113 114 113 113 117 130 130 146 150 146 154 161 168 141 117 108 105 98 79 78 87 86 77 79 80 85 85 87 88 86 84
207 118 67 97 107 117 113 125 111 110 111 102 99 101 115 126 131 135 127 126 125 118 130 150 117 107 103 101 101 93 86 86 94 94 86 82 79 78 82 85 86 84 86
180 157 116 121 124 115 108 110 118 114 111 104 101 99 112 121 122 116 112 111 102 99 103 112 98 94 91 89 85 83 78 79 89 103 110 89 80 76 77 81 80 83 85
161 156 137 135 127 123 121 114 104 107 115 112 113 107 110 115 123 117 113 113 105 96 83 65 75 76 88 84 80 71 68 73 83 93 109 116 99 77 75 79 81 81 85
130 128 136 132 130 131 127 117 111 105 104 112 115 115 118 123 124 113 116 122 113 91 75 77 72 72 71 77 81 78 77 84 87 94 100 109 112 105 82 82 85 82 78
121 119 113 111 116 125 119 115 110 107 105 112 109 105 122 125 124 121 131 141 130 120 116 123 86 98 86 69 79 84 80 93 106 109 113 112 112 115 120 101 91 84 75
126 124 109 96 94 98 105 102 99 93 87 86 87 93 100 111 123 121 133 147 138 136 135 127 119 105 116 122 81 62 64 133 134 121 128 122 126 130 132 133 128 112 96
123 129 124 115 109 104 109 115 120 119 106 96 104 106 92 93 103 120 128 139 137 150 153 141 131 125 124 107 87 48 324 213 166 154 140 136 142 138 135 141 144 143 150
132 130 131 138 137 124 112 114 123 116 121 132 106 86 87 87 96 128 139 145 146 149 135 131 127 128 148 139 140 144 179 300 269 188 158 167 167 161 163 161 154 149 147
118 127 137 139 131 127 121 106 107 94 90 75 91 93 103 106 107 122 148 149 160 158 159 150 154 148 176 220 157 151 159 201 260 244 210 180 170 167 176 176 166 157 147
124 128 132 128 129 135 127 131 141 141 148 164 151 137 134 126 140 124 147 161 166 166 161 161 158 157 160 196 261 255 182 158 149 253 273 222 191 185 189 187 179 181 165
123 133 136 129 134 149 140 146 148 137 140 134 126 133 143 155 161 162 165 167 172 172 163 157 167 171 179 189 198 221 282 329 195 168 231 252 264 233 200 189 184 182 175
115 124 134 139 140 152 148 150 152 147 141 133 143 159 170 171 168 179 176 167 176 177 171 173 181 190 209 207 207 201 186 190 221 189 208 236 241 245 229 202 183 181 181